"Pseudo-MPEC" for P112NTU

Created 2020 Aug 14 18:07:16 UT using Find_Orb

Click here for an explanation of pseudo-MPECs

 
 Astrometry: 
     P112NTU  C2020 07 18Cvm\f]OyrS?-CuR#D(`43T-]$QI^]6'3]=AFSmr!wH-UF5oZ$A)aF51
     P112NTU  C2020 07 18E41^q!e+^)_YO8M)e([356Y$_mZc4=K4R6AstrometryrIk].)@mF51
     P112NTU  C2020 07 18cJ,jredacted;-qrh^aX=eclick0E'x=,2ovhere*gB'qt4fZ$N+F51
     P112NTU KC2020 07 19Ppi7O`VGJU(Ir5[g1@`Sbg$$a8Evps'Fiq7r1ms\H+uk@bV`/i3'474
     P112NTU KC2020 07 19+%'uS.ABY2ok%hM(D2#5,?lmBUI1i*pn0wjc`e`?Rfor/dWQk9vW474
     P112NTU KC2020 07 19ed\11XgZCVe:$u7H9whyq@.[Q9'k5^-!HCfYUS:ycY9hT*jm(2FS474
     P112NTU KC2020 07 19R.4*Hou7T\8VZ%652*4vexplanationc'q2b?:ueGMN51v+`g_CZ474

Station data:
(474) Mount John Observatory, Lake Tekapo  (S43.987388 E170.464960)  New
   Zealand.  Observers A. C. Gilmore, P. M. Kilmartin. Measurer P. M.
   Kilmartin. 1.0-m f/7.7 reflector + CCD.
(F51) Pan-STARRS 1, Haleakala  (N20.707235 W156.255910)  US/Hawaii.
   Observers N. Primak, A. Schultz, S. Watters, J. Thiel, T. Goggia. Measurer
   PS1 Science Consortium. 1.8-m Ritchey-Chrétien + CCD.

Orbital elements:  P112NTU
   Perihelion 2020 Jun 14.591414 +/- 54.4 TT = 14:11:38 (JD 2459015.091414)
Epoch 2020 Jul 19.0 TT = JDT 2459049.5   Earth MOID: 0.2718   Ma: 0.0491
M   9.34806151 +/- 20               (J2000 ecliptic)          AutoNEOCP
n   0.27167816 +/- 0.181            Peri.  182.24997 +/- 80
a   2.36101939 +/- 1.05             Node    94.62628 +/- 18
e   0.4543094 +/- 0.185             Incl.    5.96482 +/- 2.6
P   3.63                   H 22.3   G  0.15   U 11.6  SR
q 1.28838595 +/- 0.311    Q 3.43365283 +/- 4.03
From 7 observations 2020 July 18-19 (26.9 hr); mean residual 0".30
Residuals in arcseconds: 
200718 F51  .43-  .21-    200719 474  .41-  .21-    200719 474  .06+  .65+    
200718 F51  .04+  .04+    200719 474  .34+  .15-    
200718 F51  .40+  .18+    200719 474  .00   .30-    

Ephemerides (geocentric):
Date (UTC) HH   RA              Dec         delta   r     elong  mag " sig PA
---- -- -- --  -------------   -----------  ------ ------ -----  --- ---- ---
2020 08 14 18  22 13 37.827   -27 15 44.80  .42453 1.4264 164.5 21.9 195'  68
2020 08 14 19  22 13 37.080   -27 15 57.08  .42470 1.4266 164.5 21.9 196'  68
2020 08 14 20  22 13 36.332   -27 16 09.31  .42487 1.4268 164.5 21.9 197'  68
2020 08 14 21  22 13 35.582   -27 16 21.49  .42505 1.4269 164.5 21.9 198'  68
2020 08 14 22  22 13 34.832   -27 16 33.63  .42522 1.4271 164.5 21.9 199'  68
2020 08 14 23  22 13 34.080   -27 16 45.73  .42539 1.4273 164.5 21.9 200'  68
2020 08 15 00  22 13 33.327   -27 16 57.78  .42557 1.4275 164.5 21.9 201'  68
2020 08 15 01  22 13 32.573   -27 17 09.78  .42574 1.4276 164.5 21.9 202'  68
2020 08 15 02  22 13 31.817   -27 17 21.74  .42592 1.4278 164.5 21.9 203'  68
2020 08 15 03  22 13 31.061   -27 17 33.66  .42609 1.4280 164.5 21.9 204'  68
2020 08 15 04  22 13 30.303   -27 17 45.53  .42627 1.4281 164.5 21.9 205'  68
2020 08 15 05  22 13 29.544   -27 17 57.36  .42644 1.4283 164.5 21.9 206'  68
2020 08 15 06  22 13 28.784   -27 18 09.14  .42662 1.4285 164.5 21.9 208'  68
2020 08 15 07  22 13 28.022   -27 18 20.88  .42679 1.4287 164.5 21.9 209'  68
2020 08 15 08  22 13 27.260   -27 18 32.57  .42697 1.4288 164.5 21.9 210'  68
2020 08 15 09  22 13 26.496   -27 18 44.22  .42714 1.4290 164.6 21.9 211'  68
2020 08 15 10  22 13 25.731   -27 18 55.82  .42732 1.4292 164.6 21.9 212'  68
2020 08 15 11  22 13 24.965   -27 19 07.38  .42750 1.4294 164.6 21.9 213'  68
2020 08 15 12  22 13 24.198   -27 19 18.89  .42767 1.4295 164.6 21.9 214'  68
2020 08 15 13  22 13 23.430   -27 19 30.36  .42785 1.4297 164.6 21.9 215'  68
2020 08 15 14  22 13 22.661   -27 19 41.78  .42803 1.4299 164.6 21.9 217'  68
2020 08 15 15  22 13 21.890   -27 19 53.16  .42820 1.4301 164.6 21.9 218'  68
2020 08 15 16  22 13 21.119   -27 20 04.49  .42838 1.4302 164.6 21.9 219'  68
2020 08 15 17  22 13 20.346   -27 20 15.78  .42856 1.4304 164.6 21.9 220'  68
2020 08 15 18  22 13 19.573   -27 20 27.02  .42874 1.4306 164.6 21.9 221'  68
2020 08 15 19  22 13 18.798   -27 20 38.21  .42892 1.4308 164.6 22.0 222'  68
2020 08 15 20  22 13 18.023   -27 20 49.37  .42910 1.4309 164.6 22.0 224'  68
2020 08 15 21  22 13 17.246   -27 21 00.47  .42927 1.4311 164.6 22.0 225'  68
2020 08 15 22  22 13 16.469   -27 21 11.53  .42945 1.4313 164.6 22.0 226'  68
2020 08 15 23  22 13 15.690   -27 21 22.55  .42963 1.4314 164.6 22.0 227'  68
2020 08 16 00  22 13 14.910   -27 21 33.52  .42981 1.4316 164.6 22.0 228'  68
2020 08 16 01  22 13 14.130   -27 21 44.45  .42999 1.4318 164.6 22.0 230'  68
2020 08 16 02  22 13 13.348   -27 21 55.33  .43017 1.4320 164.6 22.0 231'  68
2020 08 16 03  22 13 12.566   -27 22 06.16  .43035 1.4321 164.6 22.0 232'  68
2020 08 16 04  22 13 11.783   -27 22 16.95  .43053 1.4323 164.6 22.0 233'  68
2020 08 16 05  22 13 10.998   -27 22 27.70  .43071 1.4325 164.6 22.0 235'  68
2020 08 16 06  22 13 10.213   -27 22 38.40  .43090 1.4327 164.6 22.0 236'  68
2020 08 16 07  22 13 09.427   -27 22 49.05  .43108 1.4328 164.6 22.0 237'  68
2020 08 16 08  22 13 08.640   -27 22 59.66  .43126 1.4330 164.6 22.0 239'  68
2020 08 16 09  22 13 07.852   -27 23 10.22  .43144 1.4332 164.7 22.0 240'  68
2020 08 16 10  22 13 07.063   -27 23 20.74  .43162 1.4334 164.7 22.0 241'  68
2020 08 16 11  22 13 06.273   -27 23 31.21  .43180 1.4335 164.7 22.0 242'  68
2020 08 16 12  22 13 05.483   -27 23 41.64  .43199 1.4337 164.7 22.0 244'  68
2020 08 16 13  22 13 04.691   -27 23 52.02  .43217 1.4339 164.7 22.0 245'  68
2020 08 16 14  22 13 03.899   -27 24 02.36  .43235 1.4341 164.7 22.0 246'  68
2020 08 16 15  22 13 03.106   -27 24 12.65  .43254 1.4342 164.7 22.0 248'  68
2020 08 16 16  22 13 02.312   -27 24 22.89  .43272 1.4344 164.7 22.0 249'  68
2020 08 16 17  22 13 01.517   -27 24 33.09  .43290 1.4346 164.7 22.0 251'  68